Regional Weather Roundup
Issued by NWS

Home | Current Version | Previous Version | Text Only | Print | Product List | Glossary On
Versions: 1 2 3 4 5 6 7 8 9 10 11 12 13 14 15 16 17 18 19 20 21 22 23 24 25 26 27 28 29 30 31 32 33 34 35 36 37 38 39 40 41 42 43 44 45 46 47 48 49 50
000
ASUS44 KOUN 091110
RWROK

WEATHER ROUNDUP FOR OKLAHOMA
NATIONAL WEATHER SERVICE NORMAN OK
500 AM CST FRI DEC 09 2016

NOTE: "FAIR" INDICATES FEW OR NO CLOUDS BELOW 12,000 FEET WITH NO
      SIGNIFICANT WEATHER AND/OR OBSTRUCTIONS TO VISIBILITY.

OKZ001>007-009>012-014-015-017-091200-
NORTHWEST OKLAHOMA AND THE PANHANDLE

CITY           SKY/WX    TMP DP  RH WIND       PRES   REMARKS
GAGE           CLOUDY    25   8  48 SE12      30.50F WCI  14
GUYMON         CLOUDY    26  10  50 S15       30.34F WCI  14
ENID/WOODRING  CLOUDY    19  14  79 E3        30.62F
$$

OKZ016-021>023-033>039-044-045-091200-
SOUTHWEST OKLAHOMA

CITY           SKY/WX    TMP DP  RH WIND       PRES   REMARKS
LAWTON/REGL    CLOUDY    27  20  75 CALM      30.63F
LAWTON/FT SILL CLOUDY    26  17  66 NE2       30.60F
FREDERICK      CLOUDY    29  15  56 E5        30.60S WCI  24
CLINTON        CLOUDY    26  12  55 SE9       30.57F WCI  17
HOBART         CLOUDY    28  15  58 SE6       30.60F WCI  22
ALTUS AFB      CLOUDY    29  13  52 SE7       30.60F WCI  22
$$

OKZ018>020-024>031-091200-
CENTRAL OKLAHOMA

CITY           SKY/WX    TMP DP  RH WIND       PRES   REMARKS
OKLAHOMA CITY  CLOUDY    20  10  65 E6        30.62F WCI  12
OKC/WILEY POST CLOUDY    21  10  62 E5        30.63F WCI  15
OKC/TINKER AFB CLOUDY    17   8  67 E6        30.62S WCI   9
STILLWATER     CLOUDY    14  10  84 CALM      30.66S
GUTHRIE        PTCLDY    16  11  80 CALM      30.64F
$$

OKZ008-013-054>072-091200-
NORTHEAST OKLAHOMA

CITY           SKY/WX    TMP DP  RH WIND       PRES   REMARKS
TULSA          CLOUDY    15  11  83 N5        30.68F WCI   8
TULSA/JONES    CLOUDY    17  11  77 CALM      30.69F
PONCA CITY     CLOUDY    12   7  80 CALM      30.65F
BARTLESVILLE   CLOUDY    12   7  80 CALM      30.70S
MUSKOGEE       CLOUDY    17  12  80 CALM      30.70S
$$

OKZ032-040>043-046>053-073>077-091200-
SOUTH CENTRAL/SOUTHEAST OKLAHOMA

CITY           SKY/WX    TMP DP  RH WIND       PRES   REMARKS
ARDMORE/DWNTWN CLOUDY    28  14  54 NE3       30.64F
MCALESTER      CLOUDY    19  13  77 N3        30.66F
$$




USA.gov is the U.S. government's official web portal to all federal, state and local government web resources and services.